FW1908 Weather Reports


Display with metric or nautical units.
time (UTC)temp
F
wind
direction
speed
MPH
gust
MPH
rain 1hr
in
rain 24hr
in
rain mn
in
humidity
%
barometer
mb
20260904175100 97 271 2.0 6.0 0.00 0.00 0.00 54 1016.7
20260904174601 97 262 1.0 4.0 0.00 0.00 0.00 59 1016.7
20260904174100 96 252 3.0 6.0 0.00 0.00 0.00 57 1016.8
20260904173600 96 225 3.0 8.0 0.00 0.00 0.00 55 1016.8
20260904173100 96 324 3.0 8.0 0.00 0.00 0.00 58 1016.8
20260904172600 96 286 3.0 7.0 0.00 0.00 0.00 59 1016.8
20260904172100 96 225 2.0 6.0 0.00 0.00 0.00 57 1016.8
20260904171819 95 232 2.0 4.0 0.00 0.00 0.00 57 1017.0
20260904171058 95 322 3.0 6.0 0.00 0.00 0.00 57 1017.1
20260904170826 95 238 2.0 7.0 0.00 0.00 0.00 57 1017.1
20260904170056 95 290 2.0 7.0 0.00 0.00 0.00 59 1017.2
20260904165556 94 136 2.0 5.0 0.00 0.00 0.00 61 1017.3
20260904165056 94 317 3.0 6.0 0.00 0.00 0.00 61 1017.3
20260904164554 94 331 3.0 9.0 0.00 0.00 0.00 57 1017.4
20260904164054 94 317 2.0 9.0 0.00 0.00 0.00 61 1017.4
20260904163554 94 167 2.0 6.0 0.00 0.00 0.00 61 1017.5
20260904163053 93 309 2.0 6.0 0.00 0.00 0.00 60 1017.5
20260904162553 93 280 3.0 8.0 0.00 0.00 0.00 61 1017.6
20260904162050 93 282 3.0 8.0 0.00 0.00 0.00 60 1017.7
20260904161550 93 257 3.0 8.0 0.00 0.00 0.00 61 1017.7
20260904161048 92 329 3.0 8.0 0.00 0.00 0.00 60 1017.8
20260904160545 92 320 3.0 9.0 0.00 0.00 0.00 67 1017.8
20260904160045 92 242 3.0 9.0 0.00 0.00 0.00 64 1017.9
20260904155544 92 321 2.0 8.0 0.00 0.00 0.00 64 1018.0
20260904155044 92 199 2.0 5.0 0.00 0.00 0.00 65 1018.0
20260904154043 91 294 3.0 8.0 0.00 0.00 0.00 66 1018.0
20260904153544 90 234 3.0 8.0 0.00 0.00 0.00 65 1018.0
20260904153039 90 229 3.0 5.0 0.00 0.00 0.00 66 1018.1
20260904152805 90 323 2.0 6.0 0.00 0.00 0.00 66 1018.1
20260904152040 90 336 3.0 9.0 0.00 0.00 0.00 66 1018.1
20260904151806 90 250 3.0 9.0 0.00 0.00 0.00 67 1018.1
20260904151040 90 251 2.0 5.0 0.00 0.00 0.00 70 1018.1
20260904150759 89 265 3.0 8.0 0.00 0.00 0.00 69 1018.0
20260904150040 89 223 3.0 8.0 0.00 0.00 0.00 70 1018.1
20260904145540 89 226 3.0 6.0 0.00 0.00 0.00 71 1018.2
20260904145040 88 336 3.0 6.0 0.00 0.00 0.00 73 1018.1
20260904144536 87 317 2.0 5.0 0.00 0.00 0.00 73 1018.1
20260904144035 87 243 2.0 5.0 0.00 0.00 0.00 75 1018.1
20260904143536 87 138 2.0 5.0 0.00 0.00 0.00 74 1018.1
20260904143035 86 260 2.0 6.0 0.00 0.00 0.00 75 1018.1
20260904142804 86 219 2.0 6.0 0.00 0.00 0.00 76 1018.1
20260904142255 85 271 3.0 6.0 0.00 0.00 0.00 77 1018.0
20260904141537 85 314 3.0 6.0 0.00 0.00 0.00 77 1018.0
20260904141256 85 294 3.0 8.0 0.00 0.00 0.00 78 1018.0
20260904140537 84 323 3.0 8.0 0.00 0.00 0.00 79 1018.0
20260904140036 84 264 2.0 6.0 0.00 0.00 0.00 80 1018.0
20260904135536 83 290 2.0 6.0 0.00 0.00 0.00 82 1017.9
20260904134536 82 182 3.0 7.0 0.00 0.00 0.00 83 1017.9
20260904134035 82 317 3.0 7.0 0.00 0.00 0.00 84 1017.9
20260904133535 81 280 3.0 7.0 0.00 0.00 0.00 86 1017.9
20260904133034 80 313 3.0 7.0 0.00 0.00 0.00 87 1018.0
20260904132534 80 297 2.0 5.0 0.00 0.00 0.00 87 1017.9
20260904132035 79 252 2.0 6.0 0.00 0.00 0.00 88 1017.9
20260904131529 79 224 2.0 6.0 0.00 0.00 0.00 89 1018.0
20260904131029 78 239 2.0 5.0 0.00 0.00 0.00 89 1018.1
20260904130529 78 277 2.0 4.0 0.00 0.00 0.00 90 1018.0
20260904130028 78 275 2.0 4.0 0.00 0.00 0.00 90 1018.1
20260904125524 78 244 2.0 4.0 0.00 0.00 0.00 91 1018.1
20260904125024 77 245 2.0 4.0 0.00 0.00 0.00 91 1018.2
20260904124521 77 245 1.0 4.0 0.00 0.00 0.00 91 1018.1
20260904124021 77 254 1.0 3.0 0.00 0.00 0.00 91 1018.1
20260904123519 77 254 2.0 3.0 0.00 0.00 0.00 92 1018.1
20260904123019 76 253 2.0 4.0 0.00 0.00 0.00 92 1018.1
20260904122520 76 252 1.0 4.0 0.00 0.00 0.00 92 1018.1
20260904122240 76 288 1.0 3.0 0.00 0.00 0.00 92 1018.1
20260904121517 76 288 1.0 3.0 0.00 0.00 0.00 92 1018.2
20260904121238 76 344 0.0 3.0 0.00 0.00 0.00 92 1018.2
20260904120515 76 344 0.0 0.0 0.00 0.00 0.00 92 1018.2
20260904120016 76 344 0.0 0.0 0.00 0.00 0.00 92 1018.2
20260904115509 75 344 0.0 0.0 0.00 0.00 0.00 91 1018.2
20260904115002 75 344 0.0 0.0 0.00 0.00 0.00 91 1018.1
20260904114501 75 344 0.0 0.0 0.00 0.00 0.00 90 1018.0
20260904114002 75 344 0.0 0.0 0.00 0.00 0.00 90 1018.0
20260904113459 75 344 0.0 0.0 0.00 0.00 0.00 90 1017.9
20260904112958 75 344 0.0 0.0 0.00 0.00 0.00 90 1017.8
20260904112458 75 344 0.0 0.0 0.00 0.00 0.00 90 1017.7
20260904112220 75 344 0.0 0.0 0.00 0.00 0.00 90 1017.7
20260904111720 75 344 0.0 0.0 0.00 0.00 0.00 90 1017.7
20260904110455 75 344 0.0 0.0 0.00 0.00 0.00 90 1017.6
20260904105954 75 344 0.0 0.0 0.00 0.00 0.00 90 1017.5
20260904105712 75 344 0.0 0.0 0.00 0.00 0.00 90 1017.5
20260904104951 75 344 0.0 0.0 0.00 0.00 0.00 89 1017.5
20260904104451 75 344 0.0 0.0 0.00 0.00 0.00 89 1017.4
20260904103950 75 344 0.0 0.0 0.00 0.00 0.00 89 1017.3
20260904103712 75 344 0.0 0.0 0.00 0.00 0.00 89 1017.3
20260904102947 76 344 0.0 0.0 0.00 0.00 0.00 89 1017.3
20260904102447 76 344 0.0 0.0 0.00 0.00 0.00 89 1017.3
20260904101711 76 344 0.0 0.0 0.00 0.00 0.00 89 1017.3
20260904100942 76 344 0.0 0.0 0.00 0.00 0.00 89 1017.3
20260904100434 76 344 0.0 0.0 0.00 0.00 0.00 89 1017.2
20260904095930 76 344 0.0 0.0 0.00 0.00 0.00 89 1017.3
20260904095423 76 344 0.0 0.0 0.00 0.00 0.00 88 1017.2
20260904094916 76 344 0.0 0.0 0.00 0.00 0.00 88 1017.2
20260904093905 76 344 0.0 0.0 0.00 0.00 0.00 88 1017.1
20260904093358 76 344 0.0 0.0 0.00 0.00 0.00 88 1017.2
20260904092854 76 344 0.0 0.0 0.00 0.00 0.00 88 1017.1
20260904092604 76 344 0.0 0.0 0.00 0.00 0.00 88 1017.2
20260904091840 76 344 0.0 0.0 0.00 0.00 0.00 88 1017.0
20260904091335 76 344 0.0 0.0 0.00 0.00 0.00 87 1017.0
20260904090829 77 344 0.0 0.0 0.00 0.00 0.00 87 1017.0
20260904090324 77 344 0.0 0.0 0.00 0.00 0.00 87 1017.0
20260904090042 77 344 0.0 0.0 0.00 0.00 0.00 87 1017.0
20260904085538 77 344 0.0 0.0 0.00 0.00 0.00 87 1017.0
20260904084805 77 344 0.0 0.0 0.00 0.00 0.00 87 1017.0
20260904084300 77 344 0.0 0.0 0.00 0.00 0.00 87 1016.9
20260904083753 77 344 0.0 0.0 0.00 0.00 0.00 86 1016.8
20260904083246 77 344 0.0 0.0 0.00 0.00 0.00 86 1016.9
20260904082741 77 344 0.0 0.0 0.00 0.00 0.00 86 1016.8
20260904082235 77 344 0.0 0.0 0.00 0.00 0.00 86 1016.9
20260904081729 77 344 0.0 0.0 0.00 0.00 0.00 86 1016.8
20260904081223 77 344 0.0 0.0 0.00 0.00 0.00 86 1016.8
20260904080716 78 344 0.0 0.0 0.00 0.00 0.00 86 1016.8
20260904075706 78 344 0.0 0.0 0.00 0.00 0.00 85 1016.8
20260904075159 78 344 0.0 1.0 0.00 0.00 0.00 85 1016.8
20260904074911 78 344 0.0 1.0 0.00 0.00 0.00 85 1016.8
20260904074407 78 344 0.0 0.0 0.00 0.00 0.00 85 1016.8
20260904073907 78 344 0.0 0.0 0.00 0.00 0.00 84 1016.8
20260904073134 78 344 0.0 0.0 0.00 0.00 0.00 84 1016.9
20260904072630 78 344 0.0 0.0 0.00 0.00 0.00 84 1016.9
20260904072122 78 344 0.0 0.0 0.00 0.00 0.00 84 1016.9
20260904071842 78 344 0.0 1.0 0.00 0.00 0.00 84 1016.9
20260904071112 79 344 0.0 1.0 0.00 0.00 0.00 84 1016.9
20260904070605 79 344 0.0 0.0 0.00 0.00 0.00 83 1017.0
20260904070059 79 344 0.0 1.0 0.00 0.00 0.00 83 1017.0
20260904065553 79 344 0.0 1.0 0.00 0.00 0.00 83 1017.0
20260904065053 79 344 0.0 0.0 0.00 0.00 0.00 83 1017.0
20260904064815 79 344 0.0 0.0 0.00 0.00 0.00 83 1017.1
20260904064054 79 344 0.0 0.0 0.00 0.00 0.00 83 1017.1
20260904063551 79 344 0.0 0.0 0.00 0.00 0.00 82 1017.1
20260904063051 79 344 0.0 0.0 0.00 0.00 0.00 82 1017.1
20260904062551 80 344 0.0 0.0 0.00 0.00 0.00 82 1017.2
20260904062048 80 344 0.0 0.0 0.00 0.00 0.00 82 1017.3
20260904061548 80 344 0.0 0.0 0.00 0.00 0.00 81 1017.3
20260904061046 80 344 0.0 0.0 0.00 0.00 0.00 81 1017.3
20260904060806 80 344 0.0 0.0 0.00 0.00 0.00 81 1017.4
20260904060045 80 344 0.0 0.0 0.00 0.00 0.00 81 1017.5
20260904055807 80 344 0.0 1.0 0.00 0.00 0.00 80 1017.4
20260904055043 80 344 0.0 1.0 0.00 0.00 0.00 80 1017.5
20260904054801 81 344 0.0 0.0 0.00 0.00 0.00 80 1017.6
20260904054041 81 344 0.0 1.0 0.00 0.00 0.00 80 1017.6
20260904053539 81 344 0.0 1.0 0.00 0.00 0.00 79 1017.7
20260904053038 81 344 0.0 0.0 0.00 0.00 0.00 79 1017.6
20260904052536 81 344 0.0 0.0 0.00 0.00 0.00 79 1017.7
20260904052038 81 344 0.0 0.0 0.00 0.00 0.00 79 1017.8
20260904051532 81 344 0.0 0.0 0.00 0.00 0.00 78 1017.8
20260904051033 82 344 0.0 0.0 0.00 0.00 0.00 78 1017.8
20260904050531 82 344 0.0 1.0 0.00 0.00 0.00 78 1017.8
20260904050251 82 344 0.0 1.0 0.00 0.00 0.00 78 1017.9
20260904045757 82 344 0.0 2.0 0.00 0.00 0.00 77 1017.9
20260904045029 82 344 0.0 2.0 0.00 0.00 0.00 77 1017.9
20260904044527 82 311 0.0 1.0 0.00 0.00 0.00 77 1017.9
20260904044027 82 311 0.0 2.0 0.00 0.00 0.00 77 1017.9
20260904043527 82 311 0.0 2.0 0.00 0.00 0.00 77 1017.8
20260904043026 82 311 0.0 3.0 0.00 0.00 0.00 77 1017.9
20260904042748 82 311 0.0 3.0 0.00 0.00 0.00 77 1017.8
20260904041741 82 230 0.0 2.0 0.00 0.00 0.00 77 1017.8
20260904041022 82 230 0.0 4.0 0.00 0.00 0.00 77 1017.7
20260904040522 82 230 0.0 4.0 0.00 0.00 0.00 77 1017.7
20260904040021 82 274 0.0 2.0 0.00 0.00 0.00 77 1017.7
20260904035515 82 265 0.0 3.0 0.00 0.00 0.00 77 1017.8
20260904035009 82 265 0.0 3.0 0.00 0.00 0.00 77 1017.8
20260904033956 82 265 0.0 4.0 0.00 0.00 0.00 77 1018.0
20260904033451 82 199 0.0 3.0 0.00 0.00 0.00 77 1018.1
20260904032945 82 94 0.0 2.0 0.00 0.00 0.00 77 1018.0
20260904032704 83 94 0.0 2.0 0.00 0.00 0.00 77 1018.0
20260904031933 83 90 0.0 0.0 0.00 0.00 0.00 77 1018.0
20260904031427 83 90 0.0 0.0 0.00 0.00 0.00 77 1018.0
20260904030420 83 90 0.0 0.0 0.00 0.00 0.00 77 1018.0
20260904025922 83 90 0.0 0.0 0.00 0.00 0.00 77 1018.0
20260904025421 83 90 0.0 0.0 0.00 0.00 0.00 76 1018.0
20260904024919 83 90 0.0 0.0 0.00 0.00 0.00 76 1018.1
20260904024418 83 90 0.0 0.0 0.00 0.00 0.00 77 1018.1
20260904024143 83 90 0.0 0.0 0.00 0.00 0.00 76 1018.1
20260904023420 83 90 0.0 0.0 0.00 0.00 0.00 76 1018.0
20260904022917 84 90 0.0 2.0 0.00 0.00 0.00 76 1018.0
20260904022415 84 90 0.0 2.0 0.00 0.00 0.00 75 1017.9
20260904021915 84 90 0.0 0.0 0.00 0.00 0.00 75 1018.0
20260904021415 84 90 0.0 0.0 0.00 0.00 0.00 75 1018.0
20260904020912 84 90 0.0 0.0 0.00 0.00 0.00 74 1018.0
20260904020633 84 90 0.0 0.0 0.00 0.00 0.00 74 1017.9
20260904015913 84 90 0.0 0.0 0.00 0.00 0.00 74 1017.8
20260904015411 85 90 0.0 0.0 0.00 0.00 0.00 74 1017.8
20260904015138 85 90 0.0 0.0 0.00 0.00 0.00 73 1017.8
20260904014405 85 90 0.0 0.0 0.00 0.00 0.00 73 1017.7
20260904014135 85 90 0.0 0.0 0.00 0.00 0.00 73 1017.6
20260904013629 85 90 0.0 0.0 0.00 0.00 0.00 72 1017.6
20260904012900 85 90 0.0 0.0 0.00 0.00 0.00 71 1017.5
20260904012400 86 90 0.0 0.0 0.00 0.00 0.00 71 1017.4
20260904011858 86 90 0.0 0.0 0.00 0.00 0.00 70 1017.3
20260904011358 86 90 0.0 0.0 0.00 0.00 0.00 70 1017.3
20260904010857 86 90 0.0 0.0 0.00 0.00 0.00 69 1017.1
20260904010357 87 90 0.0 0.0 0.00 0.00 0.00 69 1017.1
20260904005857 87 90 0.0 0.0 0.00 0.00 0.00 69 1017.0
20260904005354 87 90 0.0 0.0 0.00 0.00 0.00 68 1016.9
20260904004852 87 90 0.0 0.0 0.00 0.00 0.00 68 1016.7
20260904004348 87 90 0.0 0.0 0.00 0.00 0.00 67 1016.7
20260904003849 88 90 0.0 0.0 0.00 0.00 0.00 67 1016.7
20260904003348 88 90 0.0 0.0 0.00 0.00 0.00 66 1016.6
20260904002846 88 90 0.0 0.0 0.00 0.00 0.00 65 1016.5
20260904002345 88 90 0.0 0.0 0.00 0.00 0.00 64 1016.4
20260904001846 89 90 0.0 0.0 0.00 0.00 0.00 65 1016.3
20260904001345 89 90 0.0 0.0 0.00 0.00 0.00 64 1016.2
20260904000846 89 90 0.0 1.0 0.00 0.00 0.00 63 1016.2
20260904000344 90 90 0.0 1.0 0.00 0.00 0.00 63 1016.1
20260904000107 90 90 0.0 1.0 0.00 0.00 0.00 62 1016.1
20260903235608 91 90 0.0 0.0 0.00 0.00 0.00 62 1016.1
20260903234846 91 90 0.0 1.0 0.00 0.00 0.00 60 1016.0
20260903234600 91 90 0.0 1.0 0.00 0.00 0.00 60 1015.9
20260903233841 91 90 0.0 1.0 0.00 0.00 0.00 60 1015.8
20260903233341 92 90 0.0 1.0 0.00 0.00 0.00 59 1015.9
20260903233101 92 90 0.0 1.0 0.00 0.00 0.00 58 1015.9
20260903232340 92 90 1.0 2.0 0.00 0.00 0.00 58 1015.8
20260903231841 92 90 1.0 2.0 0.00 0.00 0.00 58 1015.8
20260903231341 93 90 0.0 3.0 0.00 0.00 0.00 56 1015.7
20260903230841 93 90 0.0 3.0 0.00 0.00 0.00 56 1015.8
20260903230607 93 90 1.0 3.0 0.00 0.00 0.00 55 1015.8
20260903225837 93 90 1.0 4.0 0.00 0.00 0.00 55 1015.8
20260903225337 93 90 1.0 4.0 0.00 0.00 0.00 55 1015.9
20260903224836 94 90 1.0 4.0 0.00 0.00 0.00 54 1015.8
20260903224336 94 90 1.0 4.0 0.00 0.00 0.00 54 1015.8
20260903223837 94 93 0.0 2.0 0.00 0.00 0.00 54 1015.9
20260903223336 94 92 2.0 8.0 0.00 0.00 0.00 53 1015.8
20260903222837 94 97 3.0 8.0 0.00 0.00 0.00 53 1015.9
20260903222337 94 84 3.0 7.0 0.00 0.00 0.00 52 1016.0
20260903221837 94 78 2.0 4.0 0.00 0.00 0.00 52 1016.1
20260903221600 94 94 1.0 6.0 0.00 0.00 0.00 52 1016.0
20260903220837 94 94 2.0 6.0 0.00 0.00 0.00 51 1016.0
20260903220337 94 56 2.0 7.0 0.00 0.00 0.00 51 1016.0
20260903215836 94 90 2.0 7.0 0.00 0.00 0.00 51 1016.0
20260903215335 94 70 2.0 6.0 0.00 0.00 0.00 52 1016.0
20260903214835 94 84 2.0 4.0 0.00 0.00 0.00 52 1016.0
20260903214334 95 86 2.0 4.0 0.00 0.00 0.00 51 1016.0
20260903213335 95 101 1.0 4.0 0.00 0.00 0.00 52 1016.1
20260903212551 95 311 1.0 4.0 0.00 0.00 0.00 53 1016.1
20260903212050 95 236 1.0 3.0 0.00 0.00 0.00 53 1016.1
20260903211333 95 200 2.0 7.0 0.00 0.00 0.00 55 1016.1
20260903210830 95 215 2.0 7.0 0.00 0.00 0.00 53 1016.1
20260903210324 95 80 2.0 5.0 0.00 0.00 0.00 53 1016.1
20260903205817 96 250 2.0 5.0 0.00 0.00 0.00 52 1016.1
20260903205315 96 155 2.0 5.0 0.00 0.00 0.00 52 1016.1
20260903205036 96 190 2.0 6.0 0.00 0.00 0.00 53 1016.1
20260903204314 96 275 3.0 6.0 0.00 0.00 0.00 50 1016.2
20260903203812 96 82 2.0 6.0 0.00 0.00 0.00 52 1016.2
20260903203310 97 142 2.0 6.0 0.00 0.00 0.00 48 1016.3
20260903202808 98 82 2.0 7.0 0.00 0.00 0.00 49 1016.4
20260903201804 99 116 1.0 7.0 0.00 0.00 0.00 47 1016.4
20260903200304 99 153 2.0 6.0 0.00 0.00 0.00 48 1016.6
20260903195803 99 59 2.0 4.0 0.00 0.00 0.00 47 1016.6
20260903195306 99 256 2.0 7.0 0.00 0.00 0.00 48 1016.7
20260903195020 99 232 2.0 7.0 0.00 0.00 0.00 47 1016.8
20260903194302 99 295 2.0 5.0 0.00 0.00 0.00 45 1016.8
20260903193802 99 234 2.0 5.0 0.00 0.00 0.00 49 1016.8
20260903193302 99 86 2.0 7.0 0.00 0.00 0.00 47 1016.9
20260903192803 99 30 3.0 8.0 0.00 0.00 0.00 47 1016.9
20260903192257 99 108 3.0 9.0 0.00 0.00 0.00 46 1016.9
20260903192015 99 35 3.0 9.0 0.00 0.00 0.00 47 1017.0
20260903191245 99 82 1.0 3.0 0.00 0.00 0.00 48 1017.1
20260903190739 99 85 2.0 6.0 0.00 0.00 0.00 47 1017.1
20260903190233 99 85 3.0 8.0 0.00 0.00 0.00 46 1017.1
20260903185727 99 5 3.0 9.0 0.00 0.00 0.00 48 1017.1
20260903185221 99 66 2.0 9.0 0.00 0.00 0.00 49 1017.1
20260903184937 99 88 1.0 7.0 0.00 0.00 0.00 50 1017.3
20260903184210 99 95 2.0 7.0 0.00 0.00 0.00 49 1017.3
20260903183925 99 98 2.0 7.0 0.00 0.00 0.00 49 1017.4
20260903182651 99 77 3.0 11.0 0.00 0.00 0.00 48 1017.4
20260903182403 99 108 4.0 11.0 0.00 0.00 0.00 48 1017.5
20260903181133 99 130 2.0 7.0 0.00 0.00 0.00 47 1017.6
20260903180628 98 41 2.0 6.0 0.00 0.00 0.00 48 1017.5
20260903180121 98 70 1.0 4.0 0.00 0.00 0.00 51 1017.6
20260903175615 98 77 2.0 5.0 0.00 0.00 0.00 50 1017.6